Time,TemperatureF,DewpointF,PressureIn,WindDirection,WindDirectionDegrees,WindSpeedMPH,WindSpeedGustMPH,Humidity,HourlyPrecipIn,Conditions,Clouds,dailyrainin,SoftwareType,DateUTC
2013-12-21 00:03:00,71.3,64.1,30.02,NNW,328,3.0,13.0,78,0.00,,,0.00,Weather View 32 v70,2013-12-21 10:03:00,
2013-12-21 00:08:00,71.3,64.1,30.02,NNW,328,1.0,13.0,78,0.00,,,0.00,Weather View 32 v70,2013-12-21 10:08:00,
2013-12-21 00:13:00,71.4,64.2,30.01,North,2,12.0,13.0,78,0.00,,,0.00,Weather View 32 v70,2013-12-21 10:13:00,
2013-12-21 00:18:00,71.6,64.0,30.02,NNW,328,6.0,13.0,77,0.00,,,0.00,Weather View 32 v70,2013-12-21 10:18:00,
2013-12-21 00:23:00,72.0,64.0,30.02,NW,318,9.0,13.0,76,0.00,,,0.00,Weather View 32 v70,2013-12-21 10:23:00,
2013-12-21 00:28:00,72.0,64.0,30.02,WNW,298,2.0,13.0,76,0.00,,,0.00,Weather View 32 v70,2013-12-21 10:28:00,
2013-12-21 00:34:00,72.1,63.7,30.02,WNW,301,3.0,13.0,75,0.00,,,0.00,Weather View 32 v70,2013-12-21 10:34:00,
2013-12-21 00:39:00,72.3,63.5,30.02,WNW,285,5.0,13.0,74,0.00,,,0.00,Weather View 32 v70,2013-12-21 10:39:00,
2013-12-21 00:44:00,72.6,63.8,30.01,WNW,296,5.0,13.0,74,0.00,,,0.00,Weather View 32 v70,2013-12-21 10:44:00,
2013-12-21 00:49:00,72.7,63.5,30.02,WNW,291,1.0,13.0,73,0.00,,,0.00,Weather View 32 v70,2013-12-21 10:49:00,
2013-12-21 00:54:00,72.7,63.5,30.02,SW,227,4.0,13.0,73,0.00,,,0.00,Weather View 32 v70,2013-12-21 10:54:00,
2013-12-21 00:59:00,72.7,63.9,30.02,South,174,3.0,13.0,74,0.00,,,0.00,Weather View 32 v70,2013-12-21 10:59:00,
2013-12-21 01:04:00,72.4,63.6,30.02,SSE,168,5.0,13.0,74,0.00,,,0.00,Weather View 32 v70,2013-12-21 11:04:00,
2013-12-21 01:09:00,72.0,64.0,30.02,South,185,4.0,13.0,76,0.00,,,0.00,Weather View 32 v70,2013-12-21 11:09:00,
2013-12-21 01:14:00,71.8,64.2,30.02,South,181,1.0,13.0,77,0.00,,,0.00,Weather View 32 v70,2013-12-21 11:14:00,
2013-12-21 01:19:00,71.7,64.1,30.02,South,182,2.0,11.0,77,0.00,,,0.00,Weather View 32 v70,2013-12-21 11:19:00,
2013-12-21 01:24:00,71.5,63.9,30.02,North,349,1.0,10.0,77,0.00,,,0.00,Weather View 32 v70,2013-12-21 11:24:00,
2013-12-21 01:29:00,71.8,64.5,30.02,NW,326,9.0,15.0,78,0.00,,,0.00,Weather View 32 v70,2013-12-21 11:29:00,
2013-12-21 01:34:00,71.8,64.5,30.02,NW,305,5.0,15.0,78,0.00,,,0.00,Weather View 32 v70,2013-12-21 11:34:00,
2013-12-21 01:39:00,71.7,64.8,30.02,NNW,339,13.0,15.0,79,0.00,,,0.00,Weather View 32 v70,2013-12-21 11:39:00,
2013-12-21 01:44:00,71.5,64.6,30.02,NW,307,9.0,15.0,79,0.00,,,0.00,Weather View 32 v70,2013-12-21 11:44:00,
2013-12-21 01:49:00,71.3,64.4,30.02,NNW,329,6.0,15.0,79,0.00,,,0.00,Weather View 32 v70,2013-12-21 11:49:00,
2013-12-21 01:54:00,71.2,64.3,30.02,NW,312,3.0,15.0,79,0.00,,,0.00,Weather View 32 v70,2013-12-21 11:54:00,
2013-12-21 01:59:00,71.3,64.4,30.01,WNW,291,4.0,15.0,79,0.00,,,0.00,Weather View 32 v70,2013-12-21 11:59:00,
2013-12-21 02:04:00,71.4,64.5,30.01,NW,322,7.0,15.0,79,0.00,,,0.00,Weather View 32 v70,2013-12-21 12:04:00,
2013-12-21 02:09:00,71.7,64.4,30.01,NNW,340,5.0,15.0,78,0.00,,,0.00,Weather View 32 v70,2013-12-21 12:09:00,
2013-12-21 02:14:00,71.9,64.3,30.01,North,1,6.0,15.0,77,0.00,,,0.00,Weather View 32 v70,2013-12-21 12:14:00,
2013-12-21 02:19:00,71.9,64.3,30.01,North,4,10.0,15.0,77,0.00,,,0.00,Weather View 32 v70,2013-12-21 12:19:00,
2013-12-21 02:24:00,71.7,64.1,30.01,NNW,346,8.0,15.0,77,0.00,,,0.00,Weather View 32 v70,2013-12-21 12:24:00,
2013-12-21 02:29:00,71.8,64.2,30.01,NW,307,4.0,14.0,77,0.00,,,0.00,Weather View 32 v70,2013-12-21 12:29:00,
2013-12-21 02:34:00,71.8,63.8,30.00,NW,315,4.0,14.0,76,0.00,,,0.00,Weather View 32 v70,2013-12-21 12:34:00,
2013-12-21 02:39:00,71.9,63.9,30.01,NNW,343,1.0,12.0,76,0.00,,,0.00,Weather View 32 v70,2013-12-21 12:39:00,
2013-12-21 02:44:00,71.8,63.8,30.01,NNW,343,1.0,12.0,76,0.00,,,0.00,Weather View 32 v70,2013-12-21 12:44:00,
2013-12-21 02:49:00,71.6,63.6,30.01,NNE,12,4.0,12.0,76,0.00,,,0.00,Weather View 32 v70,2013-12-21 12:49:00,
2013-12-21 02:54:00,71.5,63.9,30.00,North,349,8.0,12.0,77,0.00,,,0.00,Weather View 32 v70,2013-12-21 12:54:00,
2013-12-21 02:59:00,71.2,64.0,30.01,NW,324,6.0,12.0,78,0.00,,,0.00,Weather View 32 v70,2013-12-21 12:59:00,
2013-12-21 03:04:00,71.1,63.9,30.00,NW,324,5.0,12.0,78,0.00,,,0.00,Weather View 32 v70,2013-12-21 13:04:00,
2013-12-21 03:09:00,71.2,64.0,30.00,NNW,345,5.0,12.0,78,0.00,,,0.00,Weather View 32 v70,2013-12-21 13:09:00,
2013-12-21 03:14:00,71.3,64.1,30.01,NNW,341,4.0,12.0,78,0.00,,,0.00,Weather View 32 v70,2013-12-21 13:14:00,
2013-12-21 03:19:00,71.3,64.4,30.01,North,11,6.0,12.0,79,0.00,,,0.00,Weather View 32 v70,2013-12-21 13:19:00,
2013-12-21 03:24:00,71.2,64.3,30.01,NNW,328,7.0,12.0,79,0.00,,,0.00,Weather View 32 v70,2013-12-21 13:24:00,
2013-12-21 03:29:00,71.2,64.3,30.01,WNW,299,5.0,12.0,79,0.00,,,0.00,Weather View 32 v70,2013-12-21 13:29:00,
2013-12-21 03:34:00,71.2,64.3,30.01,NNW,339,1.0,12.0,79,0.00,,,0.00,Weather View 32 v70,2013-12-21 13:34:00,
2013-12-21 03:39:00,71.2,64.3,30.01,WNW,288,6.0,12.0,79,0.00,,,0.00,Weather View 32 v70,2013-12-21 13:39:00,
2013-12-21 03:44:00,71.3,64.4,30.01,WNW,288,6.0,12.0,79,0.00,,,0.00,Weather View 32 v70,2013-12-21 13:44:00,
2013-12-21 03:49:00,71.3,64.1,30.01,NW,316,4.0,12.0,78,0.00,,,0.00,Weather View 32 v70,2013-12-21 13:49:00,
2013-12-21 03:54:00,71.3,64.1,30.00,WNW,294,7.0,12.0,78,0.00,,,0.00,Weather View 32 v70,2013-12-21 13:54:00,
2013-12-21 03:59:00,71.4,64.2,30.00,NW,307,7.0,12.0,78,0.00,,,0.00,Weather View 32 v70,2013-12-21 13:59:00,
2013-12-21 04:04:00,71.3,64.1,30.00,NNW,344,6.0,12.0,78,0.00,,,0.00,Weather View 32 v70,2013-12-21 14:04:00,
2013-12-21 04:09:00,71.2,64.0,30.00,North,9,6.0,12.0,78,0.00,,,0.00,Weather View 32 v70,2013-12-21 14:09:00,
2013-12-21 04:14:00,71.3,64.1,30.00,NNE,16,4.0,12.0,78,0.00,,,0.00,Weather View 32 v70,2013-12-21 14:14:00,
2013-12-21 04:19:00,71.2,64.0,30.00,North,6,5.0,12.0,78,0.00,,,0.00,Weather View 32 v70,2013-12-21 14:19:00,
2013-12-21 04:24:00,71.0,63.8,30.00,North,357,4.0,12.0,78,0.00,,,0.00,Weather View 32 v70,2013-12-21 14:24:00,
2013-12-21 04:29:00,70.5,63.6,30.00,NNW,341,4.0,12.0,79,0.00,,,0.00,Weather View 32 v70,2013-12-21 14:29:00,
2013-12-21 04:34:00,70.3,63.8,30.01,North,357,6.0,12.0,80,0.00,,,0.00,Weather View 32 v70,2013-12-21 14:34:00,
2013-12-21 04:39:00,70.4,63.9,30.01,NW,324,7.0,12.0,80,0.00,,,0.00,Weather View 32 v70,2013-12-21 14:39:00,
2013-12-21 04:45:00,70.6,64.1,30.01,NW,318,6.0,12.0,80,0.00,,,0.00,Weather View 32 v70,2013-12-21 14:45:00,
2013-12-21 04:50:00,70.9,63.7,30.00,North,4,7.0,12.0,78,0.00,,,0.00,Weather View 32 v70,2013-12-21 14:50:00,
2013-12-21 04:55:00,70.9,63.7,30.00,NNW,343,17.0,17.0,78,0.00,,,0.00,Weather View 32 v70,2013-12-21 14:55:00,
2013-12-21 05:00:00,70.7,64.2,30.00,NNW,345,15.0,18.0,80,0.00,,,0.00,Weather View 32 v70,2013-12-21 15:00:00,
2013-12-21 05:05:00,70.4,64.6,30.00,NNW,338,10.0,19.0,82,0.00,,,0.00,Weather View 32 v70,2013-12-21 15:05:00,
2013-12-21 05:10:00,70.3,64.2,30.00,NNW,339,10.0,19.0,81,0.00,,,0.00,Weather View 32 v70,2013-12-21 15:10:00,
2013-12-21 05:15:00,70.4,64.3,30.00,NNW,346,9.0,19.0,81,0.00,,,0.00,Weather View 32 v70,2013-12-21 15:15:00,
2013-12-21 05:20:00,70.5,64.4,30.00,NNW,341,12.0,19.0,81,0.00,,,0.00,Weather View 32 v70,2013-12-21 15:20:00,
2013-12-21 05:25:00,70.7,64.2,30.00,NW,319,13.0,19.0,80,0.00,,,0.00,Weather View 32 v70,2013-12-21 15:25:00,
2013-12-21 05:30:00,71.0,63.8,29.99,NNW,335,13.0,19.0,78,0.00,,,0.00,Weather View 32 v70,2013-12-21 15:30:00,
2013-12-21 05:35:00,71.2,64.0,30.00,NNW,346,10.0,19.0,78,0.00,,,0.00,Weather View 32 v70,2013-12-21 15:35:00,
2013-12-21 05:40:00,71.3,64.4,30.00,NNW,330,15.0,19.0,79,0.00,,,0.00,Weather View 32 v70,2013-12-21 15:40:00,
2013-12-21 05:45:00,71.3,63.7,30.00,NNW,345,13.0,19.0,77,0.00,,,0.00,Weather View 32 v70,2013-12-21 15:45:00,
2013-12-21 05:50:00,71.2,63.6,30.00,NW,326,14.0,19.0,77,0.00,,,0.00,Weather View 32 v70,2013-12-21 15:50:00,
2013-12-21 05:55:00,71.1,63.9,30.00,NNE,15,9.0,19.0,78,0.00,,,0.00,Weather View 32 v70,2013-12-21 15:55:00,
2013-12-21 06:00:00,71.0,63.8,30.00,NNE,16,10.0,19.0,78,0.00,,,0.00,Weather View 32 v70,2013-12-21 16:00:00,
2013-12-21 06:05:00,70.9,63.7,30.00,NW,322,9.0,19.0,78,0.00,,,0.00,Weather View 32 v70,2013-12-21 16:05:00,
2013-12-21 06:10:00,70.9,63.3,30.00,North,350,13.0,19.0,77,0.00,,,0.00,Weather View 32 v70,2013-12-21 16:10:00,
2013-12-21 06:15:00,70.9,63.7,30.00,NNW,346,17.0,19.0,78,0.00,,,0.00,Weather View 32 v70,2013-12-21 16:15:00,
2013-12-21 06:20:00,70.9,63.3,30.00,NNW,342,10.0,19.0,77,0.00,,,0.00,Weather View 32 v70,2013-12-21 16:20:00,
2013-12-21 06:25:00,70.9,63.3,30.01,NNE,21,5.0,19.0,77,0.00,,,0.00,Weather View 32 v70,2013-12-21 16:25:00,
2013-12-21 06:30:00,70.9,63.3,30.01,NNW,328,6.0,18.0,77,0.00,,,0.00,Weather View 32 v70,2013-12-21 16:30:00,
2013-12-21 06:35:00,71.0,63.0,30.01,NNW,343,6.0,18.0,76,0.00,,,0.00,Weather View 32 v70,2013-12-21 16:35:00,
2013-12-21 06:40:00,70.9,62.9,30.01,NNW,344,8.0,18.0,76,0.00,,,0.00,Weather View 32 v70,2013-12-21 16:40:00,
2013-12-21 06:45:00,71.0,63.0,30.01,North,353,3.0,18.0,76,0.00,,,0.00,Weather View 32 v70,2013-12-21 16:45:00,
2013-12-21 06:50:00,71.1,62.7,30.01,NNW,334,5.0,18.0,75,0.00,,,0.00,Weather View 32 v70,2013-12-21 16:50:00,
2013-12-21 06:55:00,71.4,62.7,30.01,North,1,6.0,18.0,74,0.00,,,0.00,Weather View 32 v70,2013-12-21 16:55:00,
2013-12-21 07:00:00,71.6,62.8,30.01,North,360,4.0,18.0,74,0.00,,,0.00,Weather View 32 v70,2013-12-21 17:00:00,
2013-12-21 07:05:00,71.5,63.1,30.00,North,8,8.0,18.0,75,0.00,,,0.00,Weather View 32 v70,2013-12-21 17:05:00,
2013-12-21 07:10:00,71.3,62.9,30.01,North,5,0.0,18.0,75,0.00,,,0.00,Weather View 32 v70,2013-12-21 17:10:00,
2013-12-21 07:15:00,71.2,62.5,30.00,NNW,334,4.0,18.0,74,0.00,,,0.00,Weather View 32 v70,2013-12-21 17:15:00,
2013-12-21 07:20:00,71.5,62.7,30.00,NW,308,7.0,17.0,74,0.00,,,0.00,Weather View 32 v70,2013-12-21 17:20:00,
2013-12-21 07:25:00,72.0,62.0,30.00,NW,317,8.0,16.0,71,0.00,,,0.00,Weather View 32 v70,2013-12-21 17:25:00,
2013-12-21 07:30:00,72.3,61.5,30.00,NW,319,6.0,16.0,69,0.00,,,0.00,Weather View 32 v70,2013-12-21 17:30:00,
2013-12-21 07:35:00,72.4,61.6,30.00,NNW,328,6.0,16.0,69,0.00,,,0.00,Weather View 32 v70,2013-12-21 17:35:00,
2013-12-21 07:40:00,72.5,61.7,30.01,NW,309,4.0,16.0,69,0.00,,,0.00,Weather View 32 v70,2013-12-21 17:40:00,
2013-12-21 07:45:00,72.3,61.9,30.01,South,175,1.0,16.0,70,0.00,,,0.00,Weather View 32 v70,2013-12-21 17:45:00,
2013-12-21 07:50:00,72.4,62.0,30.01,NNE,17,0.0,15.0,70,0.00,,,0.00,Weather View 32 v70,2013-12-21 17:50:00,
2013-12-21 07:55:00,72.4,62.4,30.01,East,80,0.0,15.0,71,0.00,,,0.00,Weather View 32 v70,2013-12-21 17:55:00,
2013-12-21 08:00:00,72.3,62.3,30.01,East,80,0.0,15.0,71,0.00,,,0.00,Weather View 32 v70,2013-12-21 18:00:00,
2013-12-21 08:05:00,72.3,62.3,30.01,East,101,2.0,15.0,71,0.00,,,0.00,Weather View 32 v70,2013-12-21 18:05:00,
2013-12-21 08:10:00,72.4,62.4,30.01,East,91,0.0,15.0,71,0.00,,,0.00,Weather View 32 v70,2013-12-21 18:10:00,
2013-12-21 08:15:00,72.3,62.3,30.01,NNE,22,9.0,15.0,71,0.00,,,0.00,Weather View 32 v70,2013-12-21 18:15:00,
2013-12-21 08:20:00,72.6,62.2,30.01,NNE,25,7.0,15.0,70,0.00,,,0.00,Weather View 32 v70,2013-12-21 18:20:00,
2013-12-21 08:25:00,72.4,62.8,30.01,North,3,12.0,15.0,72,0.00,,,0.00,Weather View 32 v70,2013-12-21 18:25:00,
2013-12-21 08:26:00,72.3,62.7,30.01,NNE,18,14.0,15.0,72,0.00,,,0.00,Weather View 32 v70,2013-12-21 18:26:00,
2013-12-21 08:30:00,72.2,63.0,30.01,North,10,13.0,17.0,73,0.00,,,0.00,Weather View 32 v70,2013-12-21 18:30:00,
2013-12-21 08:33:00,72.2,63.0,30.01,North,4,14.0,17.0,73,0.00,,,0.00,Weather View 32 v70,2013-12-21 18:33:00,
2013-12-21 08:35:00,72.2,63.0,30.00,NNE,20,13.0,17.0,73,0.00,,,0.00,Weather View 32 v70,2013-12-21 18:35:00,
2013-12-21 08:39:00,72.5,62.9,30.00,North,1,14.0,18.0,72,0.00,,,0.00,Weather View 32 v70,2013-12-21 18:39:00,
2013-12-21 08:40:00,72.6,63.0,30.00,NNE,12,17.0,18.0,72,0.00,,,0.00,Weather View 32 v70,2013-12-21 18:40:00,
2013-12-21 08:45:00,73.0,63.0,30.00,North,8,14.0,18.0,71,0.00,,,0.00,Weather View 32 v70,2013-12-21 18:45:00,
2013-12-21 08:50:00,73.3,63.3,30.01,NNE,19,11.0,18.0,71,0.00,,,0.00,Weather View 32 v70,2013-12-21 18:50:00,
2013-12-21 08:51:00,73.4,63.4,30.00,NNE,20,15.0,18.0,71,0.00,,,0.00,Weather View 32 v70,2013-12-21 18:51:00,
2013-12-21 08:57:00,73.2,63.2,30.00,NNE,18,16.0,18.0,71,0.00,,,0.00,Weather View 32 v70,2013-12-21 18:57:00,
2013-12-21 09:03:00,72.7,63.5,30.00,NNE,14,16.0,19.0,73,0.00,,,0.00,Weather View 32 v70,2013-12-21 19:03:00,
2013-12-21 09:14:00,73.5,63.9,30.01,NNE,23,12.0,19.0,72,0.00,,,0.00,Weather View 32 v70,2013-12-21 19:14:00,
2013-12-21 09:19:00,73.8,62.1,30.00,NNE,18,17.0,22.0,67,0.00,,,0.00,Weather View 32 v70,2013-12-21 19:19:00,
2013-12-21 09:20:00,73.8,61.7,30.00,NNE,19,18.0,22.0,66,0.00,,,0.00,Weather View 32 v70,2013-12-21 19:20:00,
2013-12-21 09:25:00,73.7,63.7,29.99,NNE,14,22.0,24.0,71,0.00,,,0.00,Weather View 32 v70,2013-12-21 19:25:00,
2013-12-21 09:30:00,73.1,63.5,30.00,North,1,18.0,24.0,72,0.00,,,0.00,Weather View 32 v70,2013-12-21 19:30:00,
2013-12-21 09:38:00,73.0,64.2,30.00,North,357,17.0,24.0,74,0.00,,,0.00,Weather View 32 v70,2013-12-21 19:38:00,
2013-12-21 09:43:00,73.4,63.8,30.00,North,5,15.0,25.0,72,0.00,,,0.00,Weather View 32 v70,2013-12-21 19:43:00,
2013-12-21 09:48:00,72.7,64.7,30.01,North,11,22.0,25.0,76,0.00,,,0.00,Weather View 32 v70,2013-12-21 19:48:00,
2013-12-21 09:55:00,72.5,65.2,29.99,NNE,15,15.0,27.0,78,0.00,,,0.00,Weather View 32 v70,2013-12-21 19:55:00,
2013-12-21 10:00:00,72.1,65.9,30.01,NNE,22,24.0,27.0,81,0.00,,,0.00,Weather View 32 v70,2013-12-21 20:00:00,
2013-12-21 10:06:00,72.0,65.5,30.01,NNE,15,21.0,27.0,80,0.00,,,0.00,Weather View 32 v70,2013-12-21 20:06:00,
2013-12-21 10:12:00,72.1,65.2,30.01,NNE,16,24.0,27.0,79,0.00,,,0.00,Weather View 32 v70,2013-12-21 20:12:00,
2013-12-21 10:17:00,72.1,64.5,30.01,NNW,341,18.0,28.0,77,0.00,,,0.00,Weather View 32 v70,2013-12-21 20:17:00,
2013-12-21 10:23:00,72.7,65.4,29.99,NNE,16,26.0,28.0,78,0.00,,,0.00,Weather View 32 v70,2013-12-21 20:23:00,
2013-12-21 10:25:00,72.3,64.7,30.00,North,5,19.0,28.0,77,0.00,,,0.00,Weather View 32 v70,2013-12-21 20:25:00,
2013-12-21 10:30:00,72.6,64.9,30.01,North,11,23.0,28.0,77,0.00,,,0.00,Weather View 32 v70,2013-12-21 20:30:00,
2013-12-21 10:35:00,72.3,65.0,30.01,NNE,28,15.0,28.0,78,0.00,,,0.00,Weather View 32 v70,2013-12-21 20:35:00,
2013-12-21 10:42:00,72.3,65.0,30.00,NNE,23,15.0,28.0,78,0.00,,,0.00,Weather View 32 v70,2013-12-21 20:42:00,
2013-12-21 10:45:00,72.4,65.1,30.00,North,355,11.0,28.0,78,0.00,,,0.00,Weather View 32 v70,2013-12-21 20:45:00,
2013-12-21 10:48:00,72.6,64.9,30.00,North,1,17.0,28.0,77,0.00,,,0.00,Weather View 32 v70,2013-12-21 20:48:00,
2013-12-21 10:50:00,72.6,65.3,29.99,NNE,18,18.0,28.0,78,0.00,,,0.00,Weather View 32 v70,2013-12-21 20:50:00,
2013-12-21 10:54:00,72.5,65.2,30.00,NNE,28,13.0,28.0,78,0.00,,,0.00,Weather View 32 v70,2013-12-21 20:54:00,
2013-12-21 10:55:00,72.4,65.1,30.00,North,353,15.0,28.0,78,0.00,,,0.00,Weather View 32 v70,2013-12-21 20:55:00,
2013-12-21 10:59:00,72.6,65.7,30.00,North,7,21.0,28.0,79,0.00,,,0.00,Weather View 32 v70,2013-12-21 20:59:00,
2013-12-21 11:05:00,72.5,65.2,30.00,North,4,22.0,28.0,78,0.00,,,0.00,Weather View 32 v70,2013-12-21 21:05:00,
2013-12-21 11:11:00,72.1,65.2,30.00,NE,46,12.0,28.0,79,0.00,,,0.00,Weather View 32 v70,2013-12-21 21:11:00,
2013-12-21 11:20:00,72.1,65.2,30.00,NNE,13,16.0,27.0,79,0.00,,,0.00,Weather View 32 v70,2013-12-21 21:20:00,
2013-12-21 11:25:00,72.1,65.9,29.99,North,359,21.0,27.0,81,0.00,,,0.00,Weather View 32 v70,2013-12-21 21:25:00,
2013-12-21 11:35:00,72.2,66.0,29.99,North,355,18.0,27.0,81,0.00,,,0.00,Weather View 32 v70,2013-12-21 21:35:00,
2013-12-21 11:40:00,72.1,65.9,29.98,North,6,18.0,27.0,81,0.00,,,0.00,Weather View 32 v70,2013-12-21 21:40:00,
2013-12-21 11:45:00,72.4,65.9,29.98,NNE,17,25.0,27.0,80,0.00,,,0.00,Weather View 32 v70,2013-12-21 21:45:00,
2013-12-21 11:50:00,72.1,65.9,29.98,NNE,29,20.0,27.0,81,0.00,,,0.00,Weather View 32 v70,2013-12-21 21:50:00,
2013-12-21 11:55:00,72.4,66.2,29.96,NNE,18,26.0,27.0,81,0.00,,,0.00,Weather View 32 v70,2013-12-21 21:55:00,
2013-12-21 12:01:00,72.1,66.3,29.98,NNW,345,13.0,27.0,82,0.00,,,0.00,Weather View 32 v70,2013-12-21 22:01:00,
2013-12-21 12:07:00,72.7,66.1,29.98,North,10,17.0,26.0,80,0.00,,,0.00,Weather View 32 v70,2013-12-21 22:07:00,
2013-12-21 12:12:00,72.9,66.3,29.97,North,4,20.0,26.0,80,0.00,,,0.00,Weather View 32 v70,2013-12-21 22:12:00,
2013-12-21 12:20:00,73.1,66.5,29.97,North,8,21.0,26.0,80,0.00,,,0.00,Weather View 32 v70,2013-12-21 22:20:00,
2013-12-21 12:25:00,73.3,66.4,29.97,North,2,20.0,26.0,79,0.00,,,0.00,Weather View 32 v70,2013-12-21 22:25:00,
2013-12-21 12:30:00,73.2,66.6,29.97,NNE,33,22.0,26.0,80,0.00,,,0.00,Weather View 32 v70,2013-12-21 22:30:00,
2013-12-21 12:31:00,73.2,66.3,29.97,NNW,347,15.0,26.0,79,0.00,,,0.00,Weather View 32 v70,2013-12-21 22:31:00,
2013-12-21 12:35:00,73.1,65.8,29.95,North,350,21.0,29.0,78,0.00,,,0.00,Weather View 32 v70,2013-12-21 22:35:00,
2013-12-21 12:36:00,73.0,65.3,29.95,North,2,24.0,29.0,77,0.00,,,0.00,Weather View 32 v70,2013-12-21 22:36:00,
2013-12-21 12:41:00,73.3,66.0,29.97,North,10,23.0,29.0,78,0.00,,,0.00,Weather View 32 v70,2013-12-21 22:41:00,
2013-12-21 12:47:00,72.8,66.2,29.96,North,6,23.0,29.0,80,0.00,,,0.00,Weather View 32 v70,2013-12-21 22:47:00,
2013-12-21 12:53:00,72.9,66.0,29.96,North,5,22.0,29.0,79,0.00,,,0.00,Weather View 32 v70,2013-12-21 22:53:00,
2013-12-21 12:55:00,72.7,66.1,29.96,North,357,21.0,29.0,80,0.00,,,0.00,Weather View 32 v70,2013-12-21 22:55:00,
2013-12-21 12:58:00,72.5,66.3,29.95,NNE,22,18.0,29.0,81,0.00,,,0.00,Weather View 32 v70,2013-12-21 22:58:00,
2013-12-21 13:05:00,72.3,66.1,29.97,NW,324,13.0,29.0,81,0.00,,,0.00,Weather View 32 v70,2013-12-21 23:05:00,
2013-12-21 13:10:00,72.3,66.5,29.95,NNE,12,20.0,29.0,82,0.00,,,0.00,Weather View 32 v70,2013-12-21 23:10:00,
2013-12-21 13:15:00,72.3,66.1,29.95,North,8,22.0,29.0,81,0.00,,,0.00,Weather View 32 v70,2013-12-21 23:15:00,
2013-12-21 13:25:00,72.4,66.2,29.95,North,4,18.0,29.0,81,0.00,,,0.00,Weather View 32 v70,2013-12-21 23:25:00,
2013-12-21 13:35:00,72.7,66.1,29.95,NNE,29,19.0,29.0,80,0.00,,,0.00,Weather View 32 v70,2013-12-21 23:35:00,
2013-12-21 13:40:00,72.1,65.6,29.94,North,1,22.0,27.0,80,0.00,,,0.00,Weather View 32 v70,2013-12-21 23:40:00,
2013-12-21 13:41:00,72.0,65.5,29.94,NNW,347,18.0,27.0,80,0.00,,,0.00,Weather View 32 v70,2013-12-21 23:41:00,
2013-12-21 13:45:00,72.1,65.9,29.95,NNW,332,16.0,27.0,81,0.00,,,0.00,Weather View 32 v70,2013-12-21 23:45:00,
2013-12-21 13:48:00,72.2,65.7,29.94,North,8,21.0,27.0,80,0.00,,,0.00,Weather View 32 v70,2013-12-21 23:48:00,
2013-12-21 13:50:00,72.1,65.2,29.94,North,9,20.0,27.0,79,0.00,,,0.00,Weather View 32 v70,2013-12-21 23:50:00,
2013-12-21 13:53:00,72.1,65.9,29.95,North,10,16.0,27.0,81,0.00,,,0.00,Weather View 32 v70,2013-12-21 23:53:00,
2013-12-21 13:58:00,72.2,65.7,29.95,North,6,21.0,26.0,80,0.00,,,0.00,Weather View 32 v70,2013-12-21 23:58:00,
2013-12-21 14:05:00,72.2,65.7,29.94,NNW,347,22.0,26.0,80,0.00,,,0.00,Weather View 32 v70,2013-12-22 00:05:00,
2013-12-21 14:12:00,72.2,66.0,29.95,NNE,27,14.0,26.0,81,0.00,,,0.00,Weather View 32 v70,2013-12-22 00:12:00,
2013-12-21 14:17:00,72.0,65.8,29.94,North,355,20.0,25.0,81,0.00,,,0.00,Weather View 32 v70,2013-12-22 00:17:00,
2013-12-21 14:23:00,72.0,65.8,29.95,NNE,31,12.0,25.0,81,0.00,,,0.00,Weather View 32 v70,2013-12-22 00:23:00,
2013-12-21 14:28:00,72.3,66.1,29.94,North,7,22.0,26.0,81,0.00,,,0.00,Weather View 32 v70,2013-12-22 00:28:00,
2013-12-21 14:30:00,72.2,66.4,29.94,North,8,19.0,26.0,82,0.00,,,0.00,Weather View 32 v70,2013-12-22 00:30:00,
2013-12-21 14:33:00,72.2,66.4,29.94,NNE,26,14.0,26.0,82,0.00,,,0.00,Weather View 32 v70,2013-12-22 00:33:00,
2013-12-21 14:38:00,72.1,65.9,29.94,North,8,20.0,26.0,81,0.00,,,0.00,Weather View 32 v70,2013-12-22 00:38:00,
2013-12-21 14:43:00,72.3,66.1,29.94,North,7,24.0,26.0,81,0.00,,,0.00,Weather View 32 v70,2013-12-22 00:43:00,
2013-12-21 14:48:00,72.2,66.0,29.94,North,6,22.0,26.0,81,0.00,,,0.00,Weather View 32 v70,2013-12-22 00:48:00,
2013-12-21 14:54:00,72.2,66.0,29.93,North,6,23.0,26.0,81,0.00,,,0.00,Weather View 32 v70,2013-12-22 00:54:00,
2013-12-21 15:00:00,72.0,66.2,29.94,NNE,23,16.0,26.0,82,0.00,,,0.00,Weather View 32 v70,2013-12-22 01:00:00,
2013-12-21 15:05:00,71.7,66.2,29.95,North,10,20.0,26.0,83,0.00,,,0.00,Weather View 32 v70,2013-12-22 01:05:00,
2013-12-21 15:12:00,71.7,65.9,29.94,NNW,341,14.0,26.0,82,0.00,,,0.00,Weather View 32 v70,2013-12-22 01:12:00,
2013-12-21 15:18:00,71.8,66.3,29.93,NNE,18,17.0,26.0,83,0.00,,,0.00,Weather View 32 v70,2013-12-22 01:18:00,
2013-12-21 15:24:00,71.8,66.3,29.95,NNE,16,14.0,26.0,83,0.00,,,0.00,Weather View 32 v70,2013-12-22 01:24:00,
2013-12-21 15:30:00,71.8,66.3,29.95,North,350,13.0,26.0,83,0.00,,,0.00,Weather View 32 v70,2013-12-22 01:30:00,
2013-12-21 15:35:00,71.6,66.1,29.93,North,10,17.0,26.0,83,0.00,,,0.00,Weather View 32 v70,2013-12-22 01:35:00,
2013-12-21 15:40:00,71.5,65.7,29.94,NNW,331,19.0,26.0,82,0.00,,,0.00,Weather View 32 v70,2013-12-22 01:40:00,
2013-12-21 15:47:00,71.7,65.9,29.95,NNW,343,10.0,26.0,82,0.00,,,0.00,Weather View 32 v70,2013-12-22 01:47:00,
2013-12-21 15:53:00,71.6,65.4,29.95,North,6,8.0,26.0,81,0.00,,,0.00,Weather View 32 v70,2013-12-22 01:53:00,
2013-12-21 15:59:00,71.8,65.3,29.95,North,353,10.0,26.0,80,0.00,,,0.00,Weather View 32 v70,2013-12-22 01:59:00,
2013-12-21 16:04:00,71.8,65.3,29.95,North,350,20.0,26.0,80,0.00,,,0.00,Weather View 32 v70,2013-12-22 02:04:00,
2013-12-21 16:09:00,71.9,65.0,29.94,North,352,21.0,26.0,79,0.00,,,0.00,Weather View 32 v70,2013-12-22 02:09:00,
2013-12-21 16:15:00,72.0,65.1,29.95,North,3,13.0,26.0,79,0.00,,,0.00,Weather View 32 v70,2013-12-22 02:15:00,
2013-12-21 16:20:00,71.9,64.6,29.95,NNE,28,11.0,26.0,78,0.00,,,0.00,Weather View 32 v70,2013-12-22 02:20:00,
2013-12-21 16:25:00,71.9,65.0,29.95,North,356,10.0,26.0,79,0.00,,,0.00,Weather View 32 v70,2013-12-22 02:25:00,
2013-12-21 16:30:00,71.6,65.1,29.95,North,349,13.0,26.0,80,0.00,,,0.00,Weather View 32 v70,2013-12-22 02:30:00,
2013-12-21 16:35:00,71.6,65.4,29.96,North,349,8.0,26.0,81,0.00,,,0.00,Weather View 32 v70,2013-12-22 02:35:00,
2013-12-21 16:40:00,71.4,65.6,29.96,NNE,19,9.0,23.0,82,0.00,,,0.00,Weather View 32 v70,2013-12-22 02:40:00,
2013-12-21 16:45:00,71.2,65.4,29.96,North,351,14.0,23.0,82,0.00,,,0.00,Weather View 32 v70,2013-12-22 02:45:00,
2013-12-21 16:50:00,71.2,65.8,29.96,NE,35,10.0,23.0,83,0.00,,,0.00,Weather View 32 v70,2013-12-22 02:50:00,
2013-12-21 16:55:00,71.0,65.6,29.96,NNW,337,17.0,23.0,83,0.00,,,0.00,Weather View 32 v70,2013-12-22 02:55:00,
2013-12-21 17:00:00,70.9,65.5,29.96,North,357,9.0,23.0,83,0.00,,,0.00,Weather View 32 v70,2013-12-22 03:00:00,
2013-12-21 17:05:00,70.8,65.4,29.96,NNW,343,15.0,21.0,83,0.00,,,0.00,Weather View 32 v70,2013-12-22 03:05:00,
2013-12-21 17:10:00,70.8,65.0,29.97,North,355,11.0,21.0,82,0.00,,,0.00,Weather View 32 v70,2013-12-22 03:10:00,
2013-12-21 17:15:00,70.9,65.1,29.97,NE,34,10.0,21.0,82,0.00,,,0.00,Weather View 32 v70,2013-12-22 03:15:00,
2013-12-21 17:20:00,71.0,64.9,29.97,NNW,345,10.0,21.0,81,0.00,,,0.00,Weather View 32 v70,2013-12-22 03:20:00,
2013-12-21 17:25:00,71.0,64.9,29.97,NW,315,6.0,21.0,81,0.00,,,0.00,Weather View 32 v70,2013-12-22 03:25:00,
2013-12-21 17:30:00,71.2,65.0,29.97,NW,309,6.0,20.0,81,0.00,,,0.00,Weather View 32 v70,2013-12-22 03:30:00,
2013-12-21 17:35:00,71.2,65.0,29.97,NNW,332,6.0,20.0,81,0.00,,,0.00,Weather View 32 v70,2013-12-22 03:35:00,
2013-12-21 17:40:00,71.1,64.6,29.97,NNW,330,12.0,20.0,80,0.00,,,0.00,Weather View 32 v70,2013-12-22 03:40:00,
2013-12-21 17:45:00,71.3,64.8,29.96,NNW,342,10.0,20.0,80,0.00,,,0.00,Weather View 32 v70,2013-12-22 03:45:00,
2013-12-21 17:50:00,71.6,64.4,29.97,NNW,343,6.0,20.0,78,0.00,,,0.00,Weather View 32 v70,2013-12-22 03:50:00,
2013-12-21 17:55:00,71.7,64.1,29.98,North,10,9.0,19.0,77,0.00,,,0.00,Weather View 32 v70,2013-12-22 03:55:00,
2013-12-21 18:00:00,71.6,63.6,29.98,NNE,16,9.0,18.0,76,0.00,,,0.00,Weather View 32 v70,2013-12-22 04:00:00,
2013-12-21 18:05:00,71.5,63.5,29.98,North,349,9.0,18.0,76,0.00,,,0.00,Weather View 32 v70,2013-12-22 04:05:00,
2013-12-21 18:10:00,71.5,63.5,29.98,NNW,328,6.0,18.0,76,0.00,,,0.00,Weather View 32 v70,2013-12-22 04:10:00,
2013-12-21 18:15:00,71.3,63.3,29.98,North,8,11.0,18.0,76,0.00,,,0.00,Weather View 32 v70,2013-12-22 04:15:00,
2013-12-21 18:20:00,71.1,63.5,29.99,NNW,333,10.0,17.0,77,0.00,,,0.00,Weather View 32 v70,2013-12-22 04:20:00,
2013-12-21 18:25:00,71.0,63.4,29.99,NNW,341,7.0,17.0,77,0.00,,,0.00,Weather View 32 v70,2013-12-22 04:25:00,
2013-12-21 18:30:00,71.2,63.6,29.99,North,10,8.0,17.0,77,0.00,,,0.00,Weather View 32 v70,2013-12-22 04:30:00,
2013-12-21 18:35:00,71.2,63.6,29.99,NNW,337,8.0,17.0,77,0.00,,,0.00,Weather View 32 v70,2013-12-22 04:35:00,
2013-12-21 18:40:00,71.3,63.3,29.99,NNW,334,10.0,17.0,76,0.00,,,0.00,Weather View 32 v70,2013-12-22 04:40:00,
2013-12-21 18:45:00,71.5,63.5,29.98,North,355,16.0,17.0,76,0.00,,,0.00,Weather View 32 v70,2013-12-22 04:45:00,
2013-12-21 18:50:00,71.4,63.4,29.99,NNW,337,8.0,17.0,76,0.00,,,0.00,Weather View 32 v70,2013-12-22 04:50:00,
2013-12-21 18:55:00,71.4,63.0,29.99,NNW,339,7.0,17.0,75,0.00,,,0.00,Weather View 32 v70,2013-12-22 04:55:00,
2013-12-21 19:00:00,71.1,63.1,29.99,NNW,337,8.0,17.0,76,0.00,,,0.00,Weather View 32 v70,2013-12-22 05:00:00,
2013-12-21 19:01:00,71.1,63.1,29.99,North,351,8.0,17.0,76,0.00,,,0.00,Weather View 32 v70,2013-12-22 05:01:00,
2013-12-21 19:02:00,71.1,63.1,29.99,NNW,346,8.0,17.0,76,0.00,,,0.00,Weather View 32 v70,2013-12-22 05:02:00,
2013-12-21 19:07:00,71.1,63.1,29.99,NNE,14,7.0,17.0,76,0.00,,,0.00,Weather View 32 v70,2013-12-22 05:07:00,
2013-12-21 19:12:00,71.0,63.0,29.99,NNW,339,10.0,17.0,76,0.00,,,0.00,Weather View 32 v70,2013-12-22 05:12:00,
2013-12-21 19:17:00,71.1,63.1,29.99,NW,326,8.0,18.0,76,0.00,,,0.00,Weather View 32 v70,2013-12-22 05:17:00,
2013-12-21 19:22:00,71.5,62.7,29.99,NNW,338,12.0,18.0,74,0.00,,,0.00,Weather View 32 v70,2013-12-22 05:22:00,
2013-12-21 19:27:00,71.5,62.7,30.00,NNW,333,8.0,18.0,74,0.00,,,0.00,Weather View 32 v70,2013-12-22 05:27:00,
2013-12-21 19:32:00,71.6,62.5,30.00,NW,320,9.0,18.0,73,0.00,,,0.00,Weather View 32 v70,2013-12-22 05:32:00,
2013-12-21 19:37:00,71.5,62.4,29.99,North,11,13.0,19.0,73,0.00,,,0.00,Weather View 32 v70,2013-12-22 05:37:00,
2013-12-21 19:42:00,71.5,62.4,30.00,NNW,330,6.0,19.0,73,0.00,,,0.00,Weather View 32 v70,2013-12-22 05:42:00,
2013-12-21 19:47:00,71.4,62.3,30.00,North,3,11.0,19.0,73,0.00,,,0.00,Weather View 32 v70,2013-12-22 05:47:00,
2013-12-21 19:52:00,71.3,62.2,30.01,NNW,331,4.0,19.0,73,0.00,,,0.00,Weather View 32 v70,2013-12-22 05:52:00,
2013-12-21 19:57:00,71.3,62.2,30.01,NNW,345,11.0,19.0,73,0.00,,,0.00,Weather View 32 v70,2013-12-22 05:57:00,
2013-12-21 20:02:00,71.2,61.7,30.01,North,8,7.0,19.0,72,0.00,,,0.00,Weather View 32 v70,2013-12-22 06:02:00,
2013-12-21 20:07:00,71.4,61.9,30.02,NW,323,10.0,19.0,72,0.00,,,0.00,Weather View 32 v70,2013-12-22 06:07:00,
2013-12-21 20:12:00,71.4,62.3,30.01,North,352,11.0,19.0,73,0.00,,,0.00,Weather View 32 v70,2013-12-22 06:12:00,
2013-12-21 20:17:00,71.3,62.2,30.01,NNW,339,12.0,19.0,73,0.00,,,0.00,Weather View 32 v70,2013-12-22 06:17:00,
2013-12-21 20:22:00,71.0,62.6,30.02,NNW,343,6.0,19.0,75,0.00,,,0.00,Weather View 32 v70,2013-12-22 06:22:00,
2013-12-21 20:27:00,70.8,62.8,30.02,North,11,9.0,19.0,76,0.00,,,0.00,Weather View 32 v70,2013-12-22 06:27:00,
2013-12-21 20:32:00,70.8,62.8,30.02,NE,39,7.0,19.0,76,0.00,,,0.00,Weather View 32 v70,2013-12-22 06:32:00,
2013-12-21 20:37:00,70.8,62.8,30.02,NNW,341,8.0,19.0,76,0.00,,,0.00,Weather View 32 v70,2013-12-22 06:37:00,
2013-12-21 20:42:00,70.9,62.9,30.02,NW,326,8.0,18.0,76,0.00,,,0.00,Weather View 32 v70,2013-12-22 06:42:00,
2013-12-21 20:47:00,70.9,62.9,30.02,NNW,342,8.0,18.0,76,0.00,,,0.00,Weather View 32 v70,2013-12-22 06:47:00,
2013-12-21 20:52:00,71.0,62.6,30.02,NNW,335,8.0,18.0,75,0.00,,,0.00,Weather View 32 v70,2013-12-22 06:52:00,
2013-12-21 20:57:00,71.2,62.8,30.02,NW,326,11.0,18.0,75,0.00,,,0.00,Weather View 32 v70,2013-12-22 06:57:00,
2013-12-21 20:59:00,71.3,63.3,30.02,NNW,327,6.0,18.0,76,0.00,,,0.00,Weather View 32 v70,2013-12-22 06:59:00,
2013-12-21 21:04:00,71.3,63.3,30.02,NNE,16,8.0,18.0,76,0.00,,,0.00,Weather View 32 v70,2013-12-22 07:04:00,
2013-12-21 21:09:00,71.2,63.2,30.01,North,357,13.0,18.0,76,0.00,,,0.00,Weather View 32 v70,2013-12-22 07:09:00,
2013-12-21 21:14:00,71.2,63.6,30.02,NNW,345,17.0,19.0,77,0.00,,,0.00,Weather View 32 v70,2013-12-22 07:14:00,
2013-12-21 21:19:00,71.2,63.6,30.02,North,351,10.0,19.0,77,0.00,,,0.00,Weather View 32 v70,2013-12-22 07:19:00,
2013-12-21 21:24:00,71.1,63.5,30.02,NNW,337,9.0,21.0,77,0.00,,,0.00,Weather View 32 v70,2013-12-22 07:24:00,
2013-12-21 21:29:00,71.2,64.0,30.01,NNW,343,16.0,22.0,78,0.00,,,0.00,Weather View 32 v70,2013-12-22 07:29:00,
2013-12-21 21:34:00,71.1,63.9,30.02,North,358,7.0,22.0,78,0.00,,,0.00,Weather View 32 v70,2013-12-22 07:34:00,
2013-12-21 21:39:00,71.1,64.2,30.02,NNW,341,17.0,22.0,79,0.00,,,0.00,Weather View 32 v70,2013-12-22 07:39:00,
2013-12-21 21:44:00,70.8,64.3,30.02,North,359,13.0,22.0,80,0.00,,,0.00,Weather View 32 v70,2013-12-22 07:44:00,
2013-12-21 21:49:00,70.7,64.9,30.02,NW,324,9.0,22.0,82,0.00,,,0.00,Weather View 32 v70,2013-12-22 07:49:00,
2013-12-21 21:54:00,70.6,64.8,30.03,NNW,335,17.0,22.0,82,0.00,,,0.00,Weather View 32 v70,2013-12-22 07:54:00,
2013-12-21 21:59:00,70.6,64.8,30.02,NNW,335,10.0,23.0,82,0.00,,,0.00,Weather View 32 v70,2013-12-22 07:59:00,
2013-12-21 22:04:00,70.5,65.1,30.02,NNW,344,16.0,23.0,83,0.00,,,0.00,Weather View 32 v70,2013-12-22 08:04:00,
2013-12-21 22:09:00,70.4,65.3,30.02,North,351,13.0,23.0,84,0.00,,,0.00,Weather View 32 v70,2013-12-22 08:09:00,
2013-12-21 22:14:00,70.3,65.2,30.02,NNW,338,15.0,23.0,84,0.00,,,0.00,Weather View 32 v70,2013-12-22 08:14:00,
2013-12-21 22:19:00,70.3,65.2,30.02,North,353,12.0,23.0,84,0.00,,,0.00,Weather View 32 v70,2013-12-22 08:19:00,
2013-12-21 22:24:00,70.2,65.1,30.01,North,353,14.0,23.0,84,0.00,,,0.00,Weather View 32 v70,2013-12-22 08:24:00,
2013-12-21 22:29:00,70.1,65.4,30.01,NNW,346,14.0,23.0,85,0.00,,,0.00,Weather View 32 v70,2013-12-22 08:29:00,
2013-12-21 22:34:00,70.2,65.5,30.01,NNW,347,13.0,23.0,85,0.00,,,0.00,Weather View 32 v70,2013-12-22 08:34:00,
2013-12-21 22:39:00,70.2,65.5,30.01,NNW,334,12.0,23.0,85,0.00,,,0.00,Weather View 32 v70,2013-12-22 08:39:00,
2013-12-21 22:44:00,70.1,65.4,30.01,NNW,328,11.0,23.0,85,0.00,,,0.00,Weather View 32 v70,2013-12-22 08:44:00,
2013-12-21 22:49:00,70.1,65.0,30.01,NW,318,6.0,23.0,84,0.00,,,0.00,Weather View 32 v70,2013-12-22 08:49:00,
2013-12-21 22:54:00,70.1,65.0,30.01,North,351,7.0,23.0,84,0.00,,,0.00,Weather View 32 v70,2013-12-22 08:54:00,
2013-12-21 22:59:00,70.1,64.7,30.01,NNW,341,9.0,19.0,83,0.00,,,0.00,Weather View 32 v70,2013-12-22 08:59:00,
2013-12-21 23:04:00,70.2,64.8,30.01,NNW,332,9.0,19.0,83,0.00,,,0.00,Weather View 32 v70,2013-12-22 09:04:00,
2013-12-21 23:09:00,70.4,64.6,30.01,NW,316,5.0,19.0,82,0.00,,,0.00,Weather View 32 v70,2013-12-22 09:09:00,
2013-12-21 23:14:00,70.5,64.4,30.01,NNW,339,5.0,18.0,81,0.00,,,0.00,Weather View 32 v70,2013-12-22 09:14:00,
2013-12-21 23:19:00,70.5,64.4,30.01,North,10,8.0,18.0,81,0.00,,,0.00,Weather View 32 v70,2013-12-22 09:19:00,
2013-12-21 23:24:00,70.4,64.3,30.01,NNW,343,5.0,18.0,81,0.00,,,0.00,Weather View 32 v70,2013-12-22 09:24:00,
2013-12-21 23:29:00,70.4,64.3,30.01,NNE,26,9.0,18.0,81,0.00,,,0.00,Weather View 32 v70,2013-12-22 09:29:00,
2013-12-21 23:34:00,70.3,64.5,30.01,NW,326,7.0,18.0,82,0.00,,,0.00,Weather View 32 v70,2013-12-22 09:34:00,
2013-12-21 23:39:00,70.3,64.2,30.00,NNW,332,10.0,17.0,81,0.00,,,0.00,Weather View 32 v70,2013-12-22 09:39:00,
2013-12-21 23:44:00,70.3,64.2,30.00,NNW,331,7.0,16.0,81,0.00,,,0.00,Weather View 32 v70,2013-12-22 09:44:00,
2013-12-21 23:49:00,70.3,64.5,30.00,NNW,334,10.0,14.0,82,0.00,,,0.00,Weather View 32 v70,2013-12-22 09:49:00,
2013-12-21 23:54:00,70.4,64.6,30.00,North,1,5.0,14.0,82,0.00,,,0.00,Weather View 32 v70,2013-12-22 09:54:00,
2013-12-21 23:59:00,70.3,64.5,30.00,North,8,6.0,14.0,82,0.00,,,0.00,Weather View 32 v70,2013-12-22 09:59:00,